• In Russia
  • List of Countries
  • For 7 days
  • Water Temperature
  • Weather Map
  • Weather Widgets
  • user-avatar
    Login

    Hourly Weather Qala i Naw

    Today, 7 April, Tuesday

    Time Temperature Precipitation Wind Pressure Humidity
    00:00 +11°C° 0 mm 1 mps 682 mmHg 72%
    01:00 +11°C° 0 mm 1 mps 682 mmHg 70%
    02:00 +11°C° 0 mm 1 mps 682 mmHg 70%
    03:00 +10°C° 0 mm 0 mps 682 mmHg 70%
    04:00 +9°C° 0 mm 0 mps 682 mmHg 72%
    05:00 +10°C° 0 mm 0 mps 683 mmHg 67%
    06:00 +12°C° 0 mm 0 mps 683 mmHg 62%
    07:00 +13°C° 0 mm 0 mps 684 mmHg 58%
    08:00 +15°C° 0 mm 1 mps 684 mmHg 57%
    09:00 +15°C° 0 mm 2 mps 684 mmHg 56%
    10:00 +15°C° 0 mm 4 mps 685 mmHg 58%
    11:00 +15°C° 0 mm 4 mps 685 mmHg 59%
    12:00 +15°C° 0 mm 5 mps 684 mmHg 60%
    13:00 +15°C° 0 mm 5 mps 684 mmHg 62%
    14:00 +15°C° 0 mm 5 mps 683 mmHg 64%
    15:00 +14°C° 0 mm 5 mps 683 mmHg 67%
    16:00 +14°C° 0 mm 5 mps 683 mmHg 69%
    17:00 +13°C° 0.1 mm 5 mps 683 mmHg 71%
    18:00 +12°C° 0.1 mm 5 mps 683 mmHg 74%
    19:00 +12°C° 0.1 mm 5 mps 683 mmHg 76%
    20:00 +11°C° 0 mm 4 mps 683 mmHg 76%
    21:00 +10°C° 0 mm 3 mps 683 mmHg 76%
    22:00 +9°C° 0 mm 2 mps 683 mmHg 76%
    23:00 +9°C° 0 mm 2 mps 683 mmHg 75%

    Tomorrow, 8 April, Wednesday

    Time Temperature Precipitation Wind Pressure Humidity
    00:00 +8°C° 0 mm 3 mps 682 mmHg 73%
    01:00 +8°C° 0 mm 3 mps 682 mmHg 71%
    02:00 +7°C° 0 mm 3 mps 682 mmHg 70%
    03:00 +5°C° 0 mm 3 mps 682 mmHg 70%
    04:00 +5°C° 0 mm 3 mps 682 mmHg 69%
    05:00 +5°C° 0 mm 2 mps 682 mmHg 71%
    06:00 +5°C° 0 mm 2 mps 682 mmHg 74%
    07:00 +4°C° 0 mm 2 mps 683 mmHg 76%
    08:00 +6°C° 0 mm 2 mps 683 mmHg 71%
    09:00 +8°C° 0 mm 3 mps 683 mmHg 67%
    10:00 +10°C° 0 mm 3 mps 683 mmHg 62%
    11:00 +7°C° 0 mm 4 mps 683 mmHg 70%
    12:00 +5°C° 0 mm 5 mps 683 mmHg 78%
    13:00 +3°C° 0 mm 6 mps 682 mmHg 86%
    14:00 +2°C° 0 mm 5 mps 683 mmHg 87%
    15:00 +2°C° 0 mm 3 mps 683 mmHg 89%
    16:00 +3°C° 0 mm 2 mps 683 mmHg 90%
    17:00 +2°C° 0.5 mm 3 mps 684 mmHg 92%
    18:00 +1°C° 0.5 mm 3 mps 684 mmHg 94%
    19:00 +1°C° 0.5 mm 3 mps 685 mmHg 95%
    20:00 +1°C° 0.6 mm 3 mps 685 mmHg 96%
    21:00 -1°C° 0.6 mm 4 mps 685 mmHg 96%
    22:00 -1°C° 0.6 mm 4 mps 686 mmHg 96%
    23:00 -1°C° 0.9 mm 3 mps 686 mmHg 96%

    Day after tomorrow, 9 April, Thursday

    Time Temperature Precipitation Wind Pressure Humidity
    00:00 -1°C° 0.9 mm 3 mps 686 mmHg 97%
    01:00 -1°C° 0.9 mm 3 mps 686 mmHg 97%
    02:00 -1°C° 0.6 mm 2 mps 686 mmHg 97%
    03:00 -1°C° 0.6 mm 2 mps 686 mmHg 96%
    04:00 +1°C° 0.6 mm 1 mps 686 mmHg 96%
    05:00 +1°C° 0.1 mm 1 mps 687 mmHg 95%
    06:00 +1°C° 0.1 mm 1 mps 687 mmHg 94%
    07:00 +1°C° 0.1 mm 1 mps 687 mmHg 94%
    08:00 +2°C° 0.1 mm 1 mps 687 mmHg 92%
    09:00 +2°C° 0.1 mm 1 mps 686 mmHg 89%
    10:00 +3°C° 0.1 mm 1 mps 686 mmHg 87%
    11:00 +4°C° 0 mm 1 mps 685 mmHg 84%
    12:00 +5°C° 0 mm 1 mps 685 mmHg 81%
    13:00 +5°C° 0 mm 2 mps 684 mmHg 77%
    14:00 +6°C° 0 mm 1 mps 684 mmHg 76%
    15:00 +7°C° 0 mm 1 mps 683 mmHg 75%
    16:00 +7°C° 0 mm 1 mps 683 mmHg 74%
    17:00 +7°C° 0 mm 1 mps 683 mmHg 77%
    18:00 +7°C° 0 mm 1 mps 683 mmHg 80%
    19:00 +5°C° 0 mm 0 mps 683 mmHg 83%
    20:00 +6°C° 0 mm 1 mps 682 mmHg 82%
    21:00 +6°C° 0 mm 1 mps 682 mmHg 81%
    22:00 +6°C° 0 mm 1 mps 682 mmHg 80%
    23:00 +6°C° 0 mm 1 mps 681 mmHg 78%

    10 April, Friday

    Time Temperature Precipitation Wind Pressure Humidity
    00:00 +6°C° 0 mm 1 mps 681 mmHg 77%
    01:00 +6°C° 0 mm 1 mps 680 mmHg 76%
    02:00 +7°C° 0 mm 1 mps 680 mmHg 75%
    03:00 +7°C° 0 mm 1 mps 680 mmHg 73%
    04:00 +7°C° 0 mm 1 mps 680 mmHg 72%
    05:00 +9°C° 0 mm 1 mps 680 mmHg 68%
    06:00 +11°C° 0 mm 1 mps 681 mmHg 64%
    07:00 +12°C° 0 mm 1 mps 681 mmHg 61%
    08:00 +14°C° 0 mm 1 mps 681 mmHg 56%
    09:00 +16°C° 0 mm 1 mps 681 mmHg 51%
    10:00 +19°C° 0 mm 1 mps 681 mmHg 46%
    11:00 +19°C° 0 mm 2 mps 681 mmHg 45%
    12:00 +20°C° 0 mm 2 mps 681 mmHg 44%
    13:00 +21°C° 0 mm 2 mps 681 mmHg 43%
    14:00 +21°C° 0 mm 2 mps 681 mmHg 45%
    15:00 +21°C° 0 mm 2 mps 681 mmHg 46%
    16:00 +21°C° 0 mm 1 mps 681 mmHg 47%
    17:00 +20°C° 0 mm 1 mps 681 mmHg 53%
    18:00 +19°C° 0 mm 1 mps 681 mmHg 58%
    19:00 +18°C° 0 mm 1 mps 680 mmHg 63%
    20:00 +18°C° 0 mm 1 mps 681 mmHg 63%
    21:00 +16°C° 0 mm 1 mps 681 mmHg 64%
    22:00 +16°C° 0 mm 1 mps 681 mmHg 64%
    23:00 +16°C° 0.1 mm 1 mps 681 mmHg 65%

    11 April, Saturday

    Time Temperature Precipitation Wind Pressure Humidity
    00:00 +17°C° 0.1 mm 2 mps 681 mmHg 65%
    01:00 +17°C° 0.1 mm 2 mps 681 mmHg 66%
    02:00 +17°C° 0.2 mm 2 mps 681 mmHg 67%
    03:00 +17°C° 0.2 mm 2 mps 681 mmHg 67%
    04:00 +17°C° 0.2 mm 2 mps 681 mmHg 68%
    05:00 +17°C° 0.1 mm 2 mps 682 mmHg 68%
    06:00 +18°C° 0.1 mm 3 mps 682 mmHg 67%
    07:00 +19°C° 0.1 mm 3 mps 682 mmHg 66%
    08:00 +21°C° 0.1 mm 3 mps 683 mmHg 57%
    09:00 +24°C° 0.1 mm 3 mps 683 mmHg 49%
    10:00 +27°C° 0.1 mm 3 mps 684 mmHg 40%
    11:00 +28°C° 0 mm 4 mps 683 mmHg 38%
    12:00 +29°C° 0 mm 6 mps 683 mmHg 35%
    13:00 +30°C° 0 mm 7 mps 683 mmHg 32%
    14:00 +29°C° 0 mm 7 mps 682 mmHg 34%
    15:00 +29°C° 0 mm 7 mps 682 mmHg 36%
    16:00 +29°C° 0 mm 7 mps 682 mmHg 38%
    17:00 +27°C° 0 mm 6 mps 681 mmHg 41%
    18:00 +26°C° 0 mm 5 mps 681 mmHg 45%
    19:00 +24°C° 0 mm 3 mps 681 mmHg 48%
    20:00 +24°C° 0 mm 3 mps 681 mmHg 47%
    21:00 +24°C° 0 mm 3 mps 681 mmHg 47%
    22:00 +24°C° 0 mm 3 mps 682 mmHg 46%
    23:00 +23°C° 0 mm 4 mps 681 mmHg 46%

    12 April, Sunday

    Time Temperature Precipitation Wind Pressure Humidity
    00:00 +22°C° 0 mm 4 mps 681 mmHg 45%
    01:00 +22°C° 0 mm 5 mps 681 mmHg 45%
    02:00 +22°C° 0 mm 4 mps 681 mmHg 48%
    03:00 +21°C° 0 mm 4 mps 681 mmHg 52%
    04:00 +20°C° 0 mm 3 mps 681 mmHg 55%
    05:00 +20°C° 0 mm 3 mps 681 mmHg 55%
    06:00 +21°C° 0 mm 2 mps 681 mmHg 55%
    07:00 +21°C° 0 mm 2 mps 681 mmHg 55%
    08:00 +25°C° 0 mm 4 mps 681 mmHg 46%
    09:00 +28°C° 0 mm 6 mps 681 mmHg 37%
    10:00 +31°C° 0 mm 8 mps 682 mmHg 28%
    11:00 +31°C° 0 mm 8 mps 682 mmHg 29%
    12:00 +31°C° 0 mm 8 mps 682 mmHg 29%
    13:00 +31°C° 0 mm 9 mps 681 mmHg 29%
    14:00 +28°C° 0 mm 8 mps 681 mmHg 37%
    15:00 +26°C° 0 mm 7 mps 681 mmHg 44%
    16:00 +23°C° 0 mm 6 mps 681 mmHg 51%
    17:00 +21°C° 0.1 mm 5 mps 681 mmHg 58%
    18:00 +20°C° 0.1 mm 5 mps 681 mmHg 65%
    19:00 +19°C° 0.1 mm 4 mps 682 mmHg 71%
    20:00 +18°C° 0.5 mm 3 mps 682 mmHg 78%
    21:00 +17°C° 0.5 mm 2 mps 682 mmHg 85%
    22:00 +16°C° 0.5 mm 1 mps 682 mmHg 92%
    23:00 +16°C° 0.5 mm 1 mps 682 mmHg 91%
    Show more